Satellite-Ground Cal/Val Site Overpasses Predictions

Prediction of Satellite NPP Overpassing Cal/Val Site: Antarctic Dome C

Ground Cal/Val Site Location: Latitude: -75.10, Longitude: 123.35; Satellite-Ground Site NADIR distance within 100 km.

Table of predicted overpasses for the next 14.0 days since TLE Epoch: 1/9/2025
Interval Starting Time Ending Time Minimum Distance Time Minimum Distance (km)
1 01/10/2025 07:44:56 01/10/2025 07:45:15 01/10/2025 07:45:06 73.54
2 01/11/2025 07:26:03 01/11/2025 07:26:30 01/11/2025 07:26:16 34.25
3 01/14/2025 14:49:32 01/14/2025 14:50:01 01/14/2025 14:49:46 9.22
4 01/16/2025 07:32:22 01/16/2025 07:32:51 01/16/2025 07:32:37 3.15
5 01/19/2025 14:55:51 01/19/2025 14:56:19 01/19/2025 14:56:05 27.45
6 01/20/2025 14:37:08 01/20/2025 14:37:25 01/20/2025 14:37:17 79.78
7 01/21/2025 07:38:43 01/21/2025 07:39:10 01/21/2025 07:38:56 38.58
